Overview Statistics Trail Chart Weather Telemetry Raw packets
 

This is the latest recevied weather packets stored in our database for station/object KL7AF. If no packets are shown the sender has not sent any weather packets the latest 10 day(s).

<< 1 2 3 4 >>
Time Temp. Humidity Pressure Rain* Wind** Luminosity Snow
1788622490 33.33° C 66% 1016.3 hPa 0 mm - 706 W/m² -
1788622189 33.33° C 66% 1016.3 hPa 0 mm - 692 W/m² -
1788621888 32.78° C 67% 1016.2 hPa 0 mm - 683 W/m² -
1788621587 32.22° C 68% 1016.2 hPa 0 mm - 672 W/m² -
1788621287 31.67° C 70% 1016.2 hPa 0 mm - 659 W/m² -
1788620986 31.11° C 72% 1016.1 hPa 0 mm - 641 W/m² -
1788620711 30° C 74% 1016 hPa 0 mm - 624 W/m² -
1788620385 29.44° C 77% 1015.9 hPa 0 mm - 606 W/m² -
1788620084 28.89° C 78% 1015.9 hPa 0 mm - 591 W/m² -
1788619783 28.89° C 80% 1015.8 hPa 0 mm - 574 W/m² -
1788619482 28.33° C 80% 1015.8 hPa 0 mm - 56 W/m² -
1788619181 28.33° C 83% 1015.8 hPa 0 mm - 49 W/m² -
1788618881 27.78° C 83% 1015.8 hPa 0 mm - 45 W/m² -
1788618580 27.78° C 84% 1015.8 hPa 0 mm - 42 W/m² -
1788618279 27.78° C 86% 1015.8 hPa 0 mm - 41 W/m² -
1788617978 27.78° C 87% 1015.8 hPa 0 mm - 41 W/m² -
1788617677 27.22° C 87% 1015.8 hPa 0 mm - 38 W/m² -
1788617375 27.22° C 88% 1015.8 hPa 0 mm - 37 W/m² -
1788617073 27.22° C 88% 1015.8 hPa 0 mm - 36 W/m² -
1788616772 26.67° C 88% 1015.8 hPa 0 mm - 35 W/m² -
1788616471 26.67° C 90% 1015.7 hPa 0 mm - 33 W/m² -
1788616170 26.11° C 91% 1015.6 hPa 0 mm - 32 W/m² -
1788615869 26.11° C 92% 1015.6 hPa 0 mm - 31 W/m² -
1788615568 25.56° C 92% 1015.5 hPa 0 mm - 30 W/m² -
1788615267 25.56° C 93% 1015.5 hPa 0 mm - 30 W/m² -

* Rain latest hour (hover to see other rain measurements)
** Current wind speed in m/s (hover to see current wind gust speed)